Es ist keine erhöhte Aufmerksamkeit aufgrund des Wetters notwendig.    Es gibt keine Warnungen.
Webcam Vorhersage DWD Regenradar Wetterlage NRW Blitze Wind GFS-Modell
webcam


Kleve - Düffelward SSO more information Kleve - Düffelward SSO


Goch more information Goch


Weitere Templates dieser Seite und andere Webseiten:

Meteotemplate

Awekas - Template

weather34 - Template

Wetter aus Willich

Hubert Reyers' Wetter


te
World Weather Websites
Bo-Rox Wetter Topsites List
Stat Counter
 

METAR-Meldungen aus der Umgebung

   
EHDL - Nijmegen
Aktualisierung: 23-09-2020 06:55
Nebel, Stark bewölkt  
Nebel, Stark bewölkt  
   Wind: SO 3.7 km/h
Wind: SO 3.7 km/h
Temperatur: 11°C
Taupunkt: 10°C
Luftfeuchte: 94%
Luftdruck: 1005 hPa
Bewölkt: Stark bewölkt
Sichtbarkeit: 5 km
Bewölkung: leicht bewölkt 1889.8 m,
Stark bewölkt 2987 m
EHDL 230455Z AUTO 13002KT 5000 BR FEW062 BKN098 11/10 Q1005 WHT
EHDL - Arnhem
Aktualisierung: 23-09-2020 06:55
Nebel, Stark bewölkt  
Nebel, Stark bewölkt  
   Wind: SO 3.7 km/h
Wind: SO 3.7 km/h
Temperatur: 11°C
Taupunkt: 10°C
Luftfeuchte: 94%
Luftdruck: 1005 hPa
Bewölkt: Stark bewölkt
Sichtbarkeit: 5 km
Bewölkung: leicht bewölkt 1889.8 m,
Stark bewölkt 2987 m
EHDL 230455Z AUTO 13002KT 5000 BR FEW062 BKN098 11/10 Q1005 WHT
EHAM - Amsterdam
Aktualisierung: 23-09-2020 06:55
Nebel, Teilweise bewölkt  
Nebel, Teilweise bewölkt  
   Wind: Süden 13 km/h
Wind: Süden 13 km/h
Temperatur: 15°C
Taupunkt: 14°C
Luftfeuchte: 94%
Luftdruck: 1004 hPa
Bewölkt: Teilweise bewölkt
Sichtbarkeit: 4 km
Bewölkung: leicht bewölkt 121.9 m,
Teilweise bewölkt 1280.2 m
EHAM 230455Z 19007KT 3500 BR FEW004 SCT042 15/14 Q1004 NOSIG
EHDL - Ede
Aktualisierung: 23-09-2020 06:55
Nebel, Stark bewölkt  
Nebel, Stark bewölkt  
   Wind: SO 3.7 km/h
Wind: SO 3.7 km/h
Temperatur: 11°C
Taupunkt: 10°C
Luftfeuchte: 94%
Luftdruck: 1005 hPa
Bewölkt: Stark bewölkt
Sichtbarkeit: 5 km
Bewölkung: leicht bewölkt 1889.8 m,
Stark bewölkt 2987 m
EHDL 230455Z AUTO 13002KT 5000 BR FEW062 BKN098 11/10 Q1005 WHT
EHDL - Emmen
Aktualisierung: 23-09-2020 06:55
Nebel, Stark bewölkt  
Nebel, Stark bewölkt  
   Wind: SO 3.7 km/h
Wind: SO 3.7 km/h
Temperatur: 11°C
Taupunkt: 10°C
Luftfeuchte: 94%
Luftdruck: 1005 hPa
Bewölkt: Stark bewölkt
Sichtbarkeit: 5 km
Bewölkung: leicht bewölkt 1889.8 m,
Stark bewölkt 2987 m
EHDL 230455Z AUTO 13002KT 5000 BR FEW062 BKN098 11/10 Q1005 WHT
EHAM - Den Haag
Aktualisierung: 23-09-2020 06:55
Nebel, Teilweise bewölkt  
Nebel, Teilweise bewölkt  
   Wind: Süden 13 km/h
Wind: Süden 13 km/h
Temperatur: 15°C
Taupunkt: 14°C
Luftfeuchte: 94%
Luftdruck: 1004 hPa
Bewölkt: Teilweise bewölkt
Sichtbarkeit: 4 km
Bewölkung: leicht bewölkt 121.9 m,
Teilweise bewölkt 1280.2 m
EHAM 230455Z 19007KT 3500 BR FEW004 SCT042 15/14 Q1004 NOSIG
EHAM - Apeldoorn
Aktualisierung: 23-09-2020 06:55
Nebel, Teilweise bewölkt  
Nebel, Teilweise bewölkt  
   Wind: Süden 13 km/h
Wind: Süden 13 km/h
Temperatur: 15°C
Taupunkt: 14°C
Luftfeuchte: 94%
Luftdruck: 1004 hPa
Bewölkt: Teilweise bewölkt
Sichtbarkeit: 4 km
Bewölkung: leicht bewölkt 121.9 m,
Teilweise bewölkt 1280.2 m
EHAM 230455Z 19007KT 3500 BR FEW004 SCT042 15/14 Q1004 NOSIG
EHAM - Leeuwarden
Aktualisierung: 23-09-2020 06:55
Nebel, Teilweise bewölkt  
Nebel, Teilweise bewölkt  
   Wind: Süden 13 km/h
Wind: Süden 13 km/h
Temperatur: 15°C
Taupunkt: 14°C
Luftfeuchte: 94%
Luftdruck: 1004 hPa
Bewölkt: Teilweise bewölkt
Sichtbarkeit: 4 km
Bewölkung: leicht bewölkt 121.9 m,
Teilweise bewölkt 1280.2 m
EHAM 230455Z 19007KT 3500 BR FEW004 SCT042 15/14 Q1004 NOSIG
TNCC - Willemstad
Aktualisierung: 23-09-2020 07:00
leicht bewölkt  
leicht bewölkt  
   Wind: OSO 18.5 km/h
Wind: OSO 18.5 km/h
Temperatur: 29°C
Hitzeindex: 34°C
Taupunkt: 25°C
Luftfeuchte: 79%
Luftdruck: 1010 hPa
Bewölkt: leicht bewölkt
Sichtbarkeit: More than 10 km
Bewölkung: leicht bewölkt 548.6 m
TNCC 230500Z 12010KT 9999 FEW018 29/25 Q1010 NOSIG=
EHEH - Eindhoven
Aktualisierung: 23-09-2020 06:55
Nebel, Klar  
Nebel, Klar  
   Wind: SSW 9.3 km/h
Wind: SSW 9.3 km/h
Temperatur: 11°C
Taupunkt: 10°C
Luftfeuchte: 94%
Luftdruck: 1005 hPa
Bewölkt: Klar
Sichtbarkeit: 5 km
Bewölkung: Klar
EHEH 230455Z AUTO 21005KT 5000 BR NCD 11/10 Q1005 WHT TEMPO 4500 BR
EHAM - Middelburg
Aktualisierung: 23-09-2020 06:55
Nebel, Teilweise bewölkt  
Nebel, Teilweise bewölkt  
   Wind: Süden 13 km/h
Wind: Süden 13 km/h
Temperatur: 15°C
Taupunkt: 14°C
Luftfeuchte: 94%
Luftdruck: 1004 hPa
Bewölkt: Teilweise bewölkt
Sichtbarkeit: 4 km
Bewölkung: leicht bewölkt 121.9 m,
Teilweise bewölkt 1280.2 m
EHAM 230455Z 19007KT 3500 BR FEW004 SCT042 15/14 Q1004 NOSIG
EHAM - Delfzijl
Aktualisierung: 23-09-2020 06:55
Nebel, Teilweise bewölkt  
Nebel, Teilweise bewölkt  
   Wind: Süden 13 km/h
Wind: Süden 13 km/h
Temperatur: 15°C
Taupunkt: 14°C
Luftfeuchte: 94%
Luftdruck: 1004 hPa
Bewölkt: Teilweise bewölkt
Sichtbarkeit: 4 km
Bewölkung: leicht bewölkt 121.9 m,
Teilweise bewölkt 1280.2 m
EHAM 230455Z 19007KT 3500 BR FEW004 SCT042 15/14 Q1004 NOSIG

Script entwickelt von  Saratoga-weather.org Angepasst für das Template von  Weerstation Leuven

Sie finden Wetter-Infos dieser Station auch auf:

UK Metoffice

European Weather Network

WeatherCloud

Weather Underground

AWEKAS

Neuwetter

Wettersektor

Von uns verwendete Ausrüstung:

Wetterstation
Davis Vantage Pro2

Wetterprogramm
Meteobridge

WetterComputer
Computer

Davis Vantage Pro2

Meteobridge

Computer